Location: Malcolm X Square
(37.7810°N, 122.4297°W)
Time: 07:27:32
(UTC+00:00)

Cosmos 1656 Rocket - Visible Passes

Search period start: 22 July 2024 00:00
Search period end: 01 August 2024 00:00
Orbit: 793 x 846 km, 71.1° (Epoch: 22 July)

Date Brightness Start Highest point End Pass type
(mag) Time Alt. Az. Time Alt. Az. Time Alt. Az.
22 Jul 5.5 05:30:42 14° ENE 05:30:42 14° ENE 05:32:15 10° ENE visible
22 Jul 4.0 07:12:00 59° WNW 07:12:00 59° WNW 07:17:24 10° NNE visible
23 Jul 5.6 05:08:53 12° E 05:08:53 12° E 05:09:49 10° ENE visible
23 Jul 3.7 06:50:10 71° WNW 06:50:12 71° WNW 06:55:45 10° NNE visible
23 Jul 6.4 08:34:20 10° NW 08:34:48 10° NW 08:35:16 10° NW visible
24 Jul 3.5 06:28:15 81° SW 06:28:30 86° WNW 06:34:04 10° NNE visible
24 Jul 6.2 08:10:44 10° WNW 08:12:55 12° NW 08:15:06 10° NNW visible
25 Jul 3.5 06:06:11 69° S 06:06:49 79° ESE 06:12:22 10° NNE visible
25 Jul 6.2 07:48:04 10° W 07:51:03 15° NW 07:54:04 10° NNW visible
26 Jul 3.5 05:43:57 51° SSE 05:45:08 65° ESE 05:50:38 10° NNE visible
26 Jul 6.0 07:25:38 10° W 07:29:12 17° NW 07:32:49 10° NNW visible
27 Jul 3.7 05:21:27 35° SSE 05:23:29 53° ESE 05:28:52 10° NNE visible
27 Jul 5.9 07:03:20 10° WSW 07:07:22 20° NW 07:11:27 10° N visible
28 Jul 3.9 04:58:34 21° SSE 05:01:50 44° ESE 05:07:04 10° NE visible
28 Jul 5.7 06:41:09 10° WSW 06:45:33 24° WNW 06:50:01 10° N visible
29 Jul 4.2 04:35:16 10° S 04:40:12 36° ESE 04:45:13 10° NE visible
29 Jul 5.4 06:19:03 10° WSW 06:23:45 29° WNW 06:28:33 10° N visible
30 Jul 4.4 04:13:55 10° SSE 04:18:34 29° ESE 04:23:18 10° NE visible
30 Jul 5.2 05:57:01 10° SW 06:01:58 34° WNW 06:07:01 10° N visible
31 Jul 4.7 03:52:39 10° SSE 03:56:57 24° ESE 04:01:21 10° NE visible
31 Jul 4.9 05:35:04 10° SW 05:40:12 41° WNW 05:45:27 10° N visible
